Weather History for Bartlesville, OK

Change the Weather History Date:

Thursday, August 1, 2013

  Actual Average Record
Temperature  
Mean Temperature 78 °F -  
Max Temperature 90 °F 94 °F 111 °F (2011)
Min Temperature 66 °F 68 °F 52 °F (1971)
Cooling Degree Days 12    
Growing Degree Days 28 (Base 50)    
Moisture  
Dew Point 68 °F    
Average Humidity 77    
Maximum Humidity 100    
Minimum Humidity 45    
Precipitation  
Precipitation 0.00 in - - ()
Sea Level Pressure  
Sea Level Pressure 30.03 in    
Wind  
Wind Speed 2 mph (East)    
Max Wind Speed 8 mph    
Max Gust Speed -    
Visibility 9 miles    
Events      
Averages and records for this station are not official NWS values.
T = Trace of Precipitation, MM = Missing Value Source: NWS Daily Summary

Daily Weather History Graph

Daily Weather History Graph

Search for Another Location

Airport:

Trip Planner

Search our weather history database for the weather conditions in past years. The results will help you decide how hot, cold, wet, or windy it might be!

Date:

Astronomy

Aug. 01, 2013 Rise Set
Actual Time 6:29 AM CDT 8:30 PM CDT
Civil Twilight 6:01 AM CDT 8:58 PM CDT
Nautical Twilight 5:26 AM CDT 9:33 PM CDT
Astronomical Twilight 4:49 AM CDT 10:10 PM CDT
Moon 2:07 AM CDT (8/1) 4:39 PM CDT (8/1)
Length of Visible Light 14h 57m
Length of Day
14h 00m
Waning Crescent, 23% of the Moon is Illuminated
Aug 1
Waning Crescent
Aug 6
New
Aug 14
First Quarter
Aug 20
Full
Aug 28
Last Quarter

Hourly Weather History & Observations

Time (CDT) Temp. Heat Index Dew Point Humidity Pressure Visibility Wind Dir Wind Speed Gust Speed Precip Events Conditions
12:53 AM 71.1 °F - 70.0 °F 96% 30.04 in 10.0 mi Calm Calm - N/A   Clear
1:53 AM 69.1 °F - 68.0 °F 96% 30.05 in 7.0 mi Calm Calm - N/A   Clear
2:53 AM 69.1 °F - 68.0 °F 96% 30.06 in 10.0 mi Calm Calm - N/A   Clear
3:53 AM 68.0 °F - 66.9 °F 96% 30.06 in 8.0 mi Calm Calm - N/A   Clear
4:53 AM 66.9 °F - 66.0 °F 97% 30.06 in 6.0 mi Calm Calm - N/A   Clear
5:53 AM 66.0 °F - 66.0 °F 100% 30.06 in 5.0 mi Calm Calm - N/A   Clear
6:53 AM 68.0 °F - 66.9 °F 96% 30.08 in 5.0 mi Calm Calm - N/A   Clear
7:53 AM 72.0 °F - 70.0 °F 93% 30.09 in 9.0 mi Calm Calm - N/A   Clear
8:53 AM 75.0 °F - 70.0 °F 84% 30.09 in 10.0 mi Calm Calm - N/A   Clear
9:53 AM 78.1 °F - 70.0 °F 76% 30.09 in 10.0 mi Calm Calm - N/A   Clear
10:53 AM 82.0 °F 85.5 °F 69.1 °F 65% 30.09 in 10.0 mi East 8.1 mph - N/A   Clear
11:53 AM 84.0 °F 88.4 °F 70.0 °F 63% 30.08 in 10.0 mi ENE 3.5 mph - N/A   Clear
12:53 PM 86.0 °F 90.1 °F 69.1 °F 57% 30.06 in 10.0 mi NE 4.6 mph - N/A   Clear
1:53 PM 87.1 °F 92.0 °F 70.0 °F 57% 30.05 in 10.0 mi ENE 6.9 mph - N/A   Clear
2:53 PM 88.0 °F 90.7 °F 66.9 °F 49% 30.03 in 10.0 mi East 8.1 mph - N/A   Clear
3:53 PM 89.1 °F 92.9 °F 68.0 °F 50% 30.01 in 10.0 mi East 4.6 mph - N/A   Clear
4:53 PM 88.0 °F 90.3 °F 66.0 °F 48% 29.98 in 10.0 mi SSE 8.1 mph - N/A   Clear
5:53 PM 88.0 °F 89.3 °F 64.0 °F 45% 29.96 in 10.0 mi East 5.8 mph - N/A   Clear
6:53 PM 86.0 °F 88.2 °F 66.0 °F 51% 29.95 in 10.0 mi SE 5.8 mph - N/A   Clear
7:53 PM 82.9 °F 85.8 °F 68.0 °F 60% 29.95 in 10.0 mi SE 3.5 mph - N/A   Clear
8:53 PM 73.9 °F - 71.1 °F 91% 29.95 in 10.0 mi Calm Calm - N/A   Clear
9:53 PM 72.0 °F - 70.0 °F 93% 29.95 in 10.0 mi Calm Calm - N/A   Clear
10:53 PM 70.0 °F - 69.1 °F 97% 29.94 in 10.0 mi Calm Calm - N/A   Clear
11:53 PM 71.1 °F - 70.0 °F 96% 29.94 in 10.0 mi Calm Calm - N/A   Clear